Hourly Data Report for September 05, 2017

All times are specified in Local Standard Time (LST). Add 1 hour to adjust for Daylight Saving Time where and when it is observed.

NAPPAN AUTO
NOVA SCOTIA

45°45'34.400" N
64°14'29.200" W
19.80 m
8203702
71311
XNP

Download Data

Hourly Data (September 2017)
Hourly Data Report for September 5, 2017
Temp Definition
°C
Dew Point Temp Definition
°C
Rel Hum Definition
%
Wind Dir Definition
10's deg

Wind Spd Definition
km/h
Visibility Definition
km
Stn Press Definition
kPa
Hmdx Definition


Wind Chill Definition


Weather Definition


TIME
00:00 13.8 11.5 86 18 15   100.70     LegendNANA
01:00 13.5 11.7 89 18 12   100.76     LegendNANA
02:00 13.9 12.3 90 20 11   100.74     LegendNANA
03:00 14.1 12.6 91 18 17   100.70     LegendNANA
04:00 14.3 12.5 89 18 18   100.71     LegendNANA
05:00 13.8 12.4 91 17 16   100.72     LegendNANA
06:00 12.8 12.0 95 20 13   100.70     LegendNANA
07:00 14.8 13.0 89 18 18   100.75     LegendNANA
08:00 17.0 13.7 81 18 20   100.68     LegendNANA
09:00 19.1 13.9 72 19 28   100.65     LegendNANA
10:00 21.4 14.6 65 20 31   100.69 25   LegendNANA
11:00 23.1 15.4 62 20 32   100.70 27   LegendNANA
12:00 24.0 15.6 59 21 34   100.74 28   LegendNANA
13:00 24.1 16.5 63 23 25   100.76 29   LegendNANA
14:00 22.9 15.3 62 24 27   100.78 27   LegendNANA
15:00 23.8 15.9 61 21 33   100.79 28   LegendNANA
16:00 24.4 16.6 62 22 25   100.77 29   LegendNANA
17:00 21.0 17.4 80 24 24   100.85 27   LegendNANA
18:00 20.9 17.6 82 22 18   100.91 27   LegendNANA
19:00 20.4 17.6 84 20 18   100.95 26   LegendNANA
20:00 19.9 17.6 87 19 14   100.99     LegendNANA
21:00 19.7 17.1 85 18 16   101.03     LegendNANA
22:00 19.0 16.7 87 18 20   101.07     LegendNANA
23:00 18.9 16.8 88 18 24   101.07     LegendNANA

Notes on Data Quality.

Legend

  • E = Estimated
  • M = Missing
  • NA = Not Available
  • ‡ = Partner data that is not subject to review by the National Climate Archives
Date modified: